NUSAT-3C

Last updated on Thu Jun 22 2017 01:17:34 GMT+0100 (British Summer Time)

1 42760U 17034C 17172.48681850 .00000464 00000-0 42788-4 0 9999 2 42760 43.0174 262.8959 0006713 11.5904 106.9042 15.08662315 962
UTC large
Height (km)
Speed (km/s)
/
Latitude / Longitude
Inclination (degrees)
Orbital Period (minutes)
Azimuth
Elevation
Range (km)
Doppler Factor

Next 0 passes for location: London (51.5072 / 0.1276)

Sorry there are no passes over London.